Goodland, KS

8:17 PM MST on February 05, 2016 (GMT -0700)
Renner-Goodland Municipal

Weather History for KGLD - March, 2014

Change the Weather History Date:

Monday, March 3, 2014

  Actual Average Record
Temperature  
Mean Temperature 25 °F 37 °F  
Max Temperature 48 °F 50 °F 74 °F (1936)
Min Temperature 2 °F 23 °F -20 °F (1960)
Degree Days  
Heating Degree Days 40 28  
Month to date heating degree days 155 85  
Since 1 July heating degree days 4699 4502  
Cooling Degree Days 0 0  
Month to date cooling degree days 0 0  
Year to date cooling degree days 0 0  
Moisture  
Dew Point 16 °F    
Average Humidity 70    
Maximum Humidity 95    
Minimum Humidity 45    
Precipitation  
Precipitation 0.00 in 0.02 in 0.96 in (1981)
Month to date precipitation 0.01 0.07  
Year to date precipitation 0.95 0.94  
Snow  
Snow 0.00 in 0.20 in - ()
Month to date snowfall 0.3 0.5  
Since 1 July snowfall 25.5 24.5  
Snow Depth T in    
Sea Level Pressure  
Sea Level Pressure 30.19 in    
Wind  
Wind Speed 17 mph (SSW)    
Max Wind Speed 32 mph    
Max Gust Speed 38 mph    
Visibility 10 miles    
Events      
T = Trace of Precipitation, MM = Missing Value Source: NWS Daily Summary

Daily Weather History Graph

Daily Weather History Graph

Search for Another Location

Airport or City:

Trip Planner

Search our weather history database for the weather conditions in past years. The results will help you decide how hot, cold, wet, or windy it might be!

Date:

Astronomy

Mar. 03, 2014 Rise Set
Actual Time 6:16 AM MST 5:41 PM MST
Civil Twilight 5:49 AM MST 6:08 PM MST
Nautical Twilight 5:18 AM MST 6:39 PM MST
Astronomical Twilight 4:47 AM MST 7:10 PM MST
Moon 7:27 AM MST (3/3) 8:45 PM MST (3/3)
Length of Visible Light 12h 18m
Length of Day
11h 24m
Waxing Crescent, 8% of the Moon is Illuminated
Mar 3
Waxing Crescent
Mar 8
First Quarter
Mar 16
Full
Mar 23
Last Quarter
Mar 30
New

Hourly Weather History & Observations

Time (MST) Temp. Windchill Dew Point Humidity Pressure Visibility Wind Dir Wind Speed Gust Speed Precip Events Conditions
12:53 AM 1.9 °F -12.9 °F -0.9 °F 88% 30.48 in 10.0 mi South 9.2 mph - N/A   Clear
1:53 AM 3.0 °F -14.8 °F -0.9 °F 84% 30.43 in 10.0 mi South 13.8 mph - N/A   Clear
2:53 AM 3.9 °F -12.2 °F -0.9 °F 80% 30.38 in 10.0 mi South 11.5 mph - N/A   Clear
3:53 AM 3.9 °F -13.7 °F -0.0 °F 84% 30.36 in 10.0 mi South 13.8 mph - N/A   Clear
4:53 AM 5.0 °F -13.0 °F 1.0 °F 84% 30.33 in 10.0 mi South 15.0 mph - N/A   Clear
5:53 AM 6.1 °F -12.2 °F 1.0 °F 80% 30.32 in 10.0 mi South 16.1 mph - N/A   Clear
6:53 AM 7.0 °F -13.1 °F 1.9 °F 80% 30.32 in 10.0 mi South 20.7 mph 28.8 mph N/A   Clear
7:53 AM 12.0 °F -7.7 °F 5.0 °F 73% 30.31 in 10.0 mi SSW 24.2 mph 33.4 mph N/A   Clear
8:53 AM 16.0 °F -3.5 °F 9.0 °F 74% 30.29 in 10.0 mi South 27.6 mph 33.4 mph N/A   Clear
9:53 AM 21.9 °F 4.5 °F 14.0 °F 72% 30.27 in 10.0 mi SSW 27.6 mph 35.7 mph N/A   Clear
10:53 AM 27.0 °F 12.8 °F 19.0 °F 72% 30.23 in 10.0 mi SSW 21.9 mph - N/A   Clear
11:53 AM 34.0 °F 22.1 °F 24.1 °F 67% 30.18 in 10.0 mi SSW 21.9 mph 33.4 mph N/A   Clear
12:53 PM 39.0 °F 28.5 °F 25.0 °F 57% 30.12 in 10.0 mi South 23.0 mph - N/A   Clear
1:53 PM 43.0 °F 33.8 °F 26.1 °F 51% 30.07 in 10.0 mi South 23.0 mph 29.9 mph N/A   Clear
2:53 PM 46.0 °F 38.8 °F 26.1 °F 46% 30.06 in 10.0 mi SSW 18.4 mph - N/A   Clear
3:53 PM 46.9 °F - 26.1 °F 44% 30.04 in 10.0 mi SSW 18.4 mph 25.3 mph N/A   Clear
4:53 PM 44.1 °F 36.8 °F 26.1 °F 49% 30.04 in 10.0 mi South 16.1 mph - N/A   Clear
5:53 PM 37.9 °F 30.0 °F 25.0 °F 60% 30.07 in 10.0 mi SSW 12.7 mph - N/A   Clear
6:53 PM 35.1 °F 25.5 °F 25.0 °F 67% 30.08 in 10.0 mi SSW 15.0 mph - N/A   Clear
7:53 PM 34.0 °F 22.7 °F 27.0 °F 75% 30.07 in 10.0 mi SW 19.6 mph - N/A   Clear
8:53 PM 34.0 °F 23.4 °F 28.9 °F 82% 30.06 in 10.0 mi SW 17.3 mph - N/A   Clear
9:53 PM 26.1 °F 21.9 °F 24.1 °F 92% 30.07 in 10.0 mi WNW 3.5 mph - N/A   Clear
10:53 PM 28.9 °F 23.9 °F 26.1 °F 89% 30.03 in 10.0 mi WSW 4.6 mph - N/A   Clear
11:53 PM 30.9 °F 25.2 °F 28.0 °F 89% 29.99 in 10.0 mi West 5.8 mph - N/A   Clear